Andocutin, Mexico

3:25 AM CDT on April 21, 2018 (GMT -0500)
Andocutin

Weather History for 76665 - May, 2012

Change the Weather History Date:

Wednesday, May 16, 2012

  Actual Average Record
Temperature  
Mean Temperature 72 °F -  
Max Temperature 82 °F 82 °F - ()
Min Temperature 62 °F 57 °F - ()
Cooling Degree Days 7    
Growing Degree Days 22 (Base 50)    
Moisture  
Dew Point 51 °F    
Average Humidity 51    
Maximum Humidity 68    
Minimum Humidity 30    
Precipitation  
Precipitation 0.00 in 0.12 in - ()
Sea Level Pressure  
Sea Level Pressure 29.98 in    
Wind  
Wind Speed 2 mph ()    
Max Wind Speed 14 mph    
Max Gust Speed -    
Visibility 6.0 miles    
Events Rain    
T = Trace of Precipitation, MM = Missing Value Source: Averaged Metar Reports

Daily Weather History Graph

Daily Weather History Graph

Search for Another Location

Airport or City:

Astronomy

May. 16, 2012 Rise Set
Actual Time 7:08 AM CDT 8:13 PM CDT
Civil Twilight 6:44 AM CDT 8:37 PM CDT
Nautical Twilight 6:16 AM CDT 9:05 PM CDT
Astronomical Twilight 5:48 AM CDT 9:34 PM CDT
Moon 4:11 AM CDT (5/16) 4:54 PM CDT (5/16)
Length of Visible Light 13h 52m
Length of Day
13h 05m
Waning Crescent, 16% of the Moon is Illuminated
May 16
Waning Crescent
May 20
New
May 28
First Quarter
Jun 4
Full
Jun 11
Last Quarter

Hourly Weather History & Observations

Time (CDT) Temp. Dew Point Humidity Pressure Visibility Wind Dir Wind Speed Gust Speed Precip Events Conditions
12:43 AM 68.0 °F 48.2 °F 49% 29.76 in 6.0 mi Calm Calm - N/A   Overcast
2:18 AM 66.2 °F 48.2 °F 52% 30.21 in 6.0 mi Calm Calm - N/A   Mostly Cloudy
2:40 AM 66.2 °F 48.2 °F 52% 30.18 in 6.0 mi Calm Calm - N/A   Mostly Cloudy
3:45 AM 66.2 °F 48.2 °F 52% 29.72 in 6.0 mi Calm Calm - N/A   Mostly Cloudy
4:41 AM 64.4 °F 48.2 °F 56% 30.17 in 6.0 mi Calm Calm - N/A   Mostly Cloudy
5:43 AM 64.4 °F 48.2 °F 56% 30.17 in 6.0 mi Calm Calm - N/A   Mostly Cloudy
6:44 AM 62.6 °F 48.2 °F 59% 29.81 in 7.0 mi Calm Calm - N/A   Scattered Clouds
8:45 AM 64.4 °F 53.6 °F 68% 30.21 in 6.0 mi Calm Calm - N/A   Scattered Clouds
9:45 AM 68.0 °F 53.6 °F 60% 29.83 in 6.0 mi ENE 11.5 mph - N/A   Clear
9:50 AM 68 °F 57 °F 58% 29.89 in 6 mi North 2.2 mph - -   Partly Cloudy
10:45 AM 71.6 °F 51.8 °F 50% 30.21 in 6.0 mi Calm Calm - N/A   Clear
11:45 AM 77.0 °F 48.2 °F 36% 30.19 in 6.0 mi Calm Calm - N/A   Scattered Clouds
12:43 PM 77.0 °F 51.8 °F 41% 29.70 in 6.0 mi NE 9.2 mph - N/A   Scattered Clouds
12:45 PM 80 °F 60 °F 40% 29.82 in 6 mi North 2.2 mph - -   Partly Cloudy
1:45 PM 82.4 °F 48.2 °F 30% 30.13 in 6.0 mi ENE 13.8 mph - N/A   Scattered Clouds
2:41 PM 82.4 °F 48.2 °F 30% 30.11 in 6.0 mi North 13.8 mph - N/A   Mostly Cloudy
3:40 PM 82.4 °F 48.2 °F 30% 29.61 in 6.0 mi Calm Calm - N/A   Mostly Cloudy
3:50 PM 78 °F 58 °F 40% 29.67 in 6 mi WNW 4.5 mph - - Rain Light Rain
4:48 PM 78.8 °F 50.0 °F 36% 30.08 in 6.0 mi ENE 5.8 mph - N/A   Mostly Cloudy
5:46 PM 73.4 °F 53.6 °F 50% 30.10 in 6.0 mi South 11.5 mph - N/A   Mostly Cloudy
6:46 PM 69.8 °F 53.6 °F 56% 29.72 in 6.0 mi South 9.2 mph - N/A   Mostly Cloudy
7:47 PM 66.2 °F 51.8 °F 60% 30.12 in 6.0 mi Calm Calm - N/A   Mostly Cloudy
8:46 PM 66.2 °F 51.8 °F 60% 30.16 in 6.0 mi Calm Calm - N/A   Mostly Cloudy
9:45 PM 66.2 °F 51.8 °F 60% 29.70 in 6.0 mi Calm Calm - N/A   Mostly Cloudy
9:50 PM 65 °F 56 °F 64% 29.75 in 5 mi South 6.7 mph - -   Partly Cloudy
10:40 PM 64.4 °F 51.8 °F 64% 30.20 in 6.0 mi Calm Calm - N/A   Mostly Cloudy
11:41 PM 62.6 °F 51.8 °F 68% 30.22 in 6.0 mi Calm Calm - N/A   Mostly Cloudy